N6CTG Weather Reports


Display with metric or nautical units.
time (UTC)temp
F
wind
direction
speed
MPH
gust
MPH
rain 1hr
in
rain 24hr
in
rain mn
in
humidity
%
barometer
mb
20260505050902 55 232 1.0 5.0 0.00 0.00 0.00 82 1014.4
20260505040902 55 234 3.0 6.0 0.00 0.00 0.00 83 1014.2
20260505040002 55 241 2.0 5.0 0.00 0.00 0.00 84 1014.2
20260505035402 55 243 1.0 5.0 0.00 0.00 0.00 84 1014.2
20260505034523 55 243 1.0 5.0 0.00 0.00 0.00 83 1014.1
20260505033602 55 243 2.0 5.0 0.00 0.00 0.00 83 1014.1
20260505032702 55 242 2.0 6.0 0.00 0.00 0.00 83 1013.9
20260505031802 55 243 3.0 6.0 0.00 0.00 0.00 82 1013.9
20260505030903 55 239 1.0 5.0 0.00 0.00 0.00 82 1013.9
20260505030025 56 239 3.0 10.0 0.00 0.00 0.00 82 1013.7
20260505025423 56 241 3.0 7.0 0.00 0.00 0.00 81 1013.6
20260505024502 56 241 4.0 10.0 0.00 0.00 0.00 80 1013.5
20260505023602 56 239 5.0 10.0 0.00 0.00 0.00 77 1013.6
20260505022703 57 238 5.0 9.0 0.00 0.00 0.00 76 1013.5
20260505021823 57 240 6.0 10.0 0.00 0.00 0.00 74 1013.6
20260505020923 58 243 5.0 8.0 0.00 0.00 0.00 71 1013.5
20260505020002 58 242 5.0 10.0 0.00 0.00 0.00 71 1013.5
20260505015402 58 241 4.0 10.0 0.00 0.00 0.00 69 1013.4
20260505014502 59 241 5.0 9.0 0.00 0.00 0.00 69 1013.2
20260505013602 59 247 5.0 11.0 0.00 0.00 0.00 68 1013.6
20260505012703 60 240 6.0 12.0 0.00 0.00 0.00 67 1013.7
20260505011802 60 239 7.0 12.0 0.00 0.00 0.00 65 1013.6
20260505010902 61 242 6.0 12.0 0.00 0.00 0.00 64 1013.7
20260505010002 61 240 7.0 13.0 0.00 0.00 0.00 63 1013.9
20260505005423 62 244 6.0 13.0 0.00 0.00 0.00 60 1013.9
20260505004502 62 245 6.0 13.0 0.00 0.00 0.00 61 1013.7
20260505003623 63 244 6.0 14.0 0.00 0.00 0.00 60 1013.6
20260505002702 62 246 6.0 14.0 0.00 0.00 0.00 59 1013.6
20260505001824 63 242 7.0 11.0 0.00 0.00 0.00 57 1013.7
20260505000902 63 242 7.0 14.0 0.00 0.00 0.00 58 1013.6
20260505000002 63 238 7.0 14.0 0.00 0.00 0.00 57 1013.7
20260504235402 63 242 5.0 14.0 0.00 0.00 0.00 57 1013.7
20260504234502 63 248 5.0 11.0 0.00 0.00 0.00 57 1013.7
20260504233624 63 246 5.0 10.0 0.00 0.00 0.00 58 1013.6
20260504232702 63 242 6.0 13.0 0.00 0.00 0.00 58 1013.6
20260504231802 63 234 8.0 13.0 0.00 0.00 0.00 58 1013.6
20260504230902 64 231 7.0 12.0 0.00 0.00 0.00 58 1013.5
20260504230002 64 238 7.0 14.0 0.00 0.00 0.00 58 1013.6
20260504225403 64 237 7.0 14.0 0.00 0.00 0.00 57 1013.5
20260504224502 64 239 7.0 14.0 0.00 0.00 0.00 56 1013.6
20260504223602 64 236 7.0 12.0 0.00 0.00 0.00 57 1013.5
20260504222702 64 245 5.0 12.0 0.00 0.00 0.00 55 1013.7
20260504221802 64 236 7.0 14.0 0.00 0.00 0.00 57 1013.9
20260504220903 64 235 7.0 14.0 0.00 0.00 0.00 54 1014.0
20260504220002 65 242 6.0 11.0 0.00 0.00 0.00 54 1013.8
20260504215402 64 239 5.0 12.0 0.00 0.00 0.00 56 1014.0
20260504214524 64 246 5.0 12.0 0.00 0.00 0.00 55 1014.1
20260504213603 64 240 6.0 12.0 0.00 0.00 0.00 56 1014.1
20260504212703 65 240 5.0 11.0 0.00 0.00 0.00 54 1014.3
20260504211803 65 245 6.0 12.0 0.00 0.00 0.00 55 1014.4
20260504210902 65 245 5.0 14.0 0.00 0.00 0.00 53 1014.4
20260504210023 65 246 5.0 13.0 0.00 0.00 0.00 56 1014.5
20260504205402 64 243 6.0 14.0 0.00 0.00 0.00 56 1014.4
20260504204523 64 239 6.0 12.0 0.00 0.00 0.00 56 1014.4
20260504203602 64 253 4.0 10.0 0.00 0.00 0.00 56 1014.3
20260504202702 64 251 4.0 10.0 0.00 0.00 0.00 55 1014.4
20260504201802 64 256 3.0 9.0 0.00 0.00 0.00 59 1014.4
20260504200902 64 235 5.0 10.0 0.00 0.00 0.00 57 1014.4
20260504200004 63 240 4.0 10.0 0.00 0.00 0.00 58 1014.5
20260504195402 63 241 5.0 12.0 0.00 0.00 0.00 57 1014.5
20260504194523 63 251 3.0 9.0 0.00 0.00 0.00 60 1014.6
20260504193624 62 262 4.0 10.0 0.00 0.00 0.00 59 1014.6
20260504192702 63 246 4.0 9.0 0.00 0.00 0.00 59 1014.8
20260504191802 63 249 3.0 7.0 0.00 0.00 0.00 59 1014.9
20260504190902 62 241 5.0 10.0 0.00 0.00 0.00 61 1014.7
20260504190002 62 237 6.0 11.0 0.00 0.00 0.00 62 1014.9
20260504185402 62 249 4.0 10.0 0.00 0.00 0.00 62 1015.1
20260504184502 61 237 5.0 10.0 0.00 0.00 0.00 62 1015.2
20260504183602 61 239 5.0 10.0 0.00 0.00 0.00 63 1015.2
20260504182702 60 235 4.0 8.0 0.00 0.00 0.00 65 1015.2
20260504181823 59 243 5.0 9.0 0.00 0.00 0.00 68 1015.3
20260504180902 60 242 6.0 12.0 0.00 0.00 0.00 68 1015.2
20260504180002 61 241 4.0 10.0 0.00 0.00 0.00 66 1015.1
20260504175403 61 246 3.0 8.0 0.00 0.00 0.00 67 1015.0
20260504174523 60 240 2.0 6.0 0.00 0.00 0.00 67 1015.0
20260504173604 60 246 4.0 8.0 0.00 0.00 0.00 66 1015.0
20260504172723 60 242 3.0 8.0 0.00 0.00 0.00 68 1014.9
20260504171802 59 253 3.0 8.0 0.00 0.00 0.00 70 1014.8
20260504170923 59 241 3.0 7.0 0.00 0.00 0.00 73 1015.0
20260504150923 55 226 0.0 3.0 0.00 0.00 0.00 83 1014.5
20260504140923 53 149 0.0 1.0 0.00 0.00 0.00 89 1014.5
20260504081802 56 244 2.0 8.0 0.00 0.00 0.00 84 1013.2
20260504080902 56 227 0.0 2.0 0.00 0.00 0.00 83 1013.1